GFSNE_sfc_dewp_057.txt.gz
Dewpoint
74 74 70 63 62 61 61 61 60 59 58 66 57 66 62 61 66 68 70 69 68 67 66 66 66 66 67 68 68 68 69 70 70 70 69 68 68 67
69 76 75 67 66 64 63 62 62 60 58 58 58 64 65 62 66 67 67 68 68 67 66 65 65 65 65 65 66 67 67 67 68 68 68 67 68 68
75 73 75 77 69 65 64 63 62 62 60 60 59 66 74 74 71 72 69 71 67 66 66 65 65 65 65 64 64 64 65 65 66 66 67 67 66 67
74 75 72 70 77 77 70 76 69 71 64 71 68 66 72 73 74 75 69 67 68 66 66 65 64 64 64 64 63 62 62 63 63 64 65 66 66 66
73 74 74 75 77 72 74 69 66 69 70 68 68 67 68 67 70 74 74 73 69 68 65 64 64 64 63 63 62 61 60 59 60 61 62 63 64 65
74 74 74 75 76 77 75 77 75 73 70 68 67 67 67 71 68 66 67 67 68 66 66 65 66 65 64 62 62 61 59 58 57 58 59 59 61 62
74 75 74 74 71 73 72 76 77 73 69 68 67 65 64 64 68 67 68 69 72 70 68 70 70 71 70 64 64 64 61 59 58 58 57 57 58 59
75 75 76 72 72 68 67 68 72 76 77 71 68 67 73 72 70 69 70 70 70 71 74 74 74 73 73 73 68 63 61 61 59 58 58 57 57 57
75 75 73 67 72 75 70 67 68 66 68 75 74 74 74 76 77 77 74 74 74 75 75 73 73 73 74 71 67 65 61 60 59 58 58 57 56 57
75 75 76 75 75 74 75 74 75 75 76 73 74 75 77 77 78 76 76 76 76 74 76 73 73 73 74 73 67 65 63 59 59 58 57 56 55 55
74 74 75 76 71 65 74 75 75 75 67 62 65 66 65 64 67 71 71 73 72 71 74 75 73 72 71 71 71 64 62 60 57 57 57 56 54 54
75 76 66 71 65 62 75 75 75 75 75 73 73 71 67 70 63 71 74 73 73 72 75 73 72 70 68 70 70 72 72 64 57 55 55 55 53 57
67 66 68 62 61 59 61 75 74 74 72 73 71 73 75 76 77 77 78 78 75 73 74 75 70 70 68 66 67 69 69 70 72 70 53 52 52 57
68 62 66 57 57 58 61 62 59 63 70 71 72 72 73 74 74 76 78 78 79 77 77 78 71 67 67 66 65 67 68 68 71 72 71 58 51 53
70 64 61 57 55 58 57 59 59 70 71 71 72 72 73 75 75 75 78 79 79 79 74 75 69 69 66 65 64 64 63 63 66 66 69 59 55 55
67 70 67 65 62 67 70 66 71 73 73 73 74 75 75 73 73 73 71 65 63 63 73 73 73 71 64 63 62 60 61 61 62 64 59 57 57 58
70 72 70 70 71 72 73 75 76 76 75 74 74 73 73 73 73 69 65 64 63 63 63 64 73 69 64 64 60 58 59 59 59 58 55 54 55 55
69 70 71 71 71 71 72 74 75 74 76 74 73 73 72 70 67 65 64 63 63 64 63 63 63 62 61 57 58 57 59 59 58 57 55 53 53 55
72 71 71 72 72 73 75 75 74 74 75 74 72 71 68 67 64 64 64 63 63 63 63 63 63 61 59 58 58 53 57 59 58 55 57 56 54 54
72 71 74 74 75 76 75 74 73 73 72 70 69 67 66 64 63 64 63 63 63 63 62 63 63 62 60 60 60 58 49 59 57 55 55 55 55 54
73 74 74 75 74 71 71 70 71 69 69 71 66 65 64 63 64 64 63 59 59 62 62 62 63 61 64 65 60 59 56 49 55 56 55 53 53 54
72 73 72 71 71 70 70 71 68 67 67 65 64 64 64 64 64 63 63 63 63 62 61 62 65 65 63 61 59 59 56 54 51 51 52 53 54 51
72 71 70 69 68 68 70 70 67 68 66 65 64 65 64 63 64 64 63 62 61 61 61 58 59 62 62 59 56 58 55 54 53 52 52 51 51 53

GFSNE_sfc_dewp_060.txt.gz
Dewpoint
76 77 75 73 70 69 70 69 69 65 65 69 68 70 69 70 72 70 70 69 67 66 66 66 66 67 67 67 68 68 68 69 69 70 70 70 70 69
75 75 76 73 72 72 71 71 71 68 66 68 69 70 70 65 71 72 71 70 68 66 65 64 64 65 66 66 65 66 67 67 68 68 69 69 69 68
76 76 75 76 75 74 74 71 70 71 68 68 71 71 73 73 72 73 73 72 71 66 66 65 64 64 65 65 65 64 65 65 66 66 67 68 68 67
76 75 75 74 77 76 75 75 75 75 72 70 71 70 70 72 74 75 73 69 69 68 66 65 64 64 64 64 64 63 63 63 63 64 65 66 66 66
75 75 75 76 76 76 76 74 72 73 73 71 70 73 73 73 71 74 75 74 72 70 66 65 64 64 63 62 62 62 60 60 60 61 62 63 64 65
75 75 75 76 76 77 75 76 75 75 74 73 71 70 71 72 74 72 71 72 70 70 69 66 66 66 64 62 62 62 59 58 58 58 59 60 61 62
75 75 75 75 72 73 75 76 76 75 73 73 71 72 71 71 71 71 72 72 72 73 71 74 74 73 73 68 66 65 62 60 58 57 57 57 58 60
74 75 76 72 71 68 67 68 72 75 74 74 73 72 72 72 73 71 71 71 70 74 76 73 75 74 74 74 70 65 62 61 59 58 57 56 58 59
75 75 74 71 71 74 69 66 67 66 68 73 72 72 72 73 73 74 74 73 73 73 74 73 75 74 75 73 66 65 63 61 59 59 58 57 56 57
74 74 75 74 74 75 74 74 74 74 73 71 72 73 74 75 75 75 75 75 73 73 76 73 73 73 75 73 66 65 63 61 60 58 57 56 54 54
72 74 75 75 70 66 72 73 74 75 69 67 68 67 67 66 69 73 71 69 70 73 76 74 74 73 72 70 73 65 62 61 59 58 57 55 53 52
73 74 66 69 65 62 72 74 73 73 73 74 74 71 64 68 62 67 70 72 74 73 76 73 73 71 69 72 67 69 69 62 60 58 58 55 52 57
70 70 72 63 60 59 61 73 72 73 72 75 74 72 72 75 76 78 78 77 75 74 75 75 72 71 70 66 68 68 65 65 64 64 60 56 51 56
71 70 70 61 59 59 60 62 60 62 72 71 71 71 73 73 77 78 78 77 77 77 77 77 74 71 68 65 64 64 63 62 62 61 63 58 52 51
72 67 60 57 54 56 57 59 59 68 70 70 71 73 74 77 78 76 75 76 77 77 77 75 72 70 68 65 64 62 59 60 59 59 59 57 55 55
67 70 67 67 63 67 68 62 69 72 73 73 73 74 77 76 75 74 74 75 69 69 71 72 71 69 67 66 64 60 59 58 58 57 56 55 56 57
70 72 72 72 71 72 74 75 73 74 74 74 74 76 75 74 73 75 75 70 68 68 67 70 70 65 61 63 61 60 58 58 57 56 55 54 54 54
69 72 72 72 72 71 71 73 75 74 76 76 77 75 74 73 73 73 70 68 68 67 67 69 68 66 61 57 57 59 59 59 57 57 56 53 53 54
73 72 72 73 73 73 73 75 76 77 76 75 74 73 73 73 68 68 68 68 67 67 68 68 67 65 62 60 55 52 58 59 57 56 56 54 53 54
72 73 73 74 76 76 76 76 76 76 75 74 74 73 72 71 69 68 68 67 66 67 66 65 67 66 63 61 62 56 48 59 57 56 54 54 54 54
73 73 75 78 77 77 76 76 75 73 73 73 72 71 69 67 68 67 66 59 61 66 65 65 65 62 66 66 62 60 55 49 53 58 55 54 53 53
77 76 76 75 75 74 74 73 72 68 68 68 67 67 66 67 66 66 66 65 65 64 64 65 67 66 64 62 60 59 56 54 51 51 52 53 54 51
73 71 70 69 69 70 71 70 69 69 69 66 66 65 67 65 66 66 65 65 65 63 63 62 64 65 63 62 59 59 57 55 54 53 53 51 51 52

GFSNE_sfc_dewp_063.txt.gz
Dewpoint
72 71 71 70 69 67 63 63 62 59 60 64 65 66 66 66 68 69 66 68 67 66 65 65 66 66 67 68 68 68 68 68 69 69 69 70 71 72
70 72 71 70 69 71 67 65 66 62 60 64 63 65 68 66 68 69 67 69 68 66 65 64 64 65 66 66 66 66 67 67 67 67 68 68 69 70
71 72 71 71 69 71 73 71 66 66 63 63 67 67 67 67 68 69 69 69 68 67 66 65 65 65 65 65 65 65 66 66 66 66 67 67 68 68
72 72 72 72 71 71 72 71 71 71 68 64 67 66 66 67 68 68 69 71 70 69 67 66 65 64 64 64 63 63 63 64 64 64 65 66 66 66
72 73 71 72 72 73 72 71 70 70 71 69 68 70 71 71 69 69 70 72 72 70 67 66 65 64 63 62 62 61 60 60 60 61 62 63 64 66
74 73 73 73 72 72 73 72 72 72 71 71 70 70 69 70 71 70 69 69 70 71 70 68 68 69 67 64 62 62 59 58 58 58 59 59 61 63
72 73 73 73 72 72 74 74 73 73 72 71 71 71 70 69 69 71 70 69 69 70 70 71 73 73 73 71 70 67 63 61 59 57 57 57 57 59
73 73 73 72 71 68 68 69 73 73 72 72 71 70 70 70 71 70 69 69 69 72 73 71 72 74 74 74 68 65 63 62 60 59 58 57 56 57
73 72 72 72 71 73 68 66 66 66 67 70 70 69 70 70 71 70 71 71 71 72 72 70 73 73 73 74 68 64 62 60 60 59 58 57 56 55
73 73 72 72 71 71 71 72 71 69 69 68 69 70 71 72 72 72 72 72 73 72 71 71 73 72 74 72 66 64 60 59 59 59 58 57 55 53
71 71 73 73 69 66 70 72 73 74 70 65 66 65 65 65 67 71 71 71 70 68 73 73 72 72 71 70 68 64 60 58 57 57 57 56 54 52
69 71 66 71 66 64 69 70 69 69 70 71 71 68 65 67 64 68 71 69 69 72 73 71 71 69 68 69 66 65 63 58 56 55 56 55 52 57
68 68 69 63 59 58 60 70 71 71 71 72 73 73 72 71 71 73 69 71 72 72 73 73 70 70 68 66 65 63 61 60 58 58 56 54 52 51
68 68 68 62 59 58 59 61 60 61 70 71 70 70 70 70 71 74 75 75 75 75 75 74 72 69 65 62 62 62 60 59 57 57 57 55 54 53
70 67 64 60 58 58 58 59 59 64 67 68 68 69 71 72 74 74 74 74 75 75 75 74 70 66 64 62 60 58 56 57 56 56 55 55 55 56
66 67 64 65 64 66 66 59 62 66 67 67 68 70 73 74 73 73 72 74 69 65 68 69 67 65 63 61 59 56 56 55 55 54 55 55 54 55
68 70 69 69 70 70 71 70 65 69 69 71 72 73 73 73 72 72 73 72 65 64 64 66 60 59 58 59 57 56 55 54 54 54 54 54 54 54
68 70 70 71 71 71 69 71 72 70 71 72 73 73 72 72 72 71 71 64 64 64 63 65 64 61 57 56 57 56 55 54 54 55 56 54 52 53
70 71 71 71 71 71 70 69 69 74 74 74 74 74 73 73 72 69 65 65 63 63 64 64 63 62 59 57 54 52 55 56 56 55 55 54 53 53
70 71 71 71 71 71 71 73 74 74 73 73 72 72 71 71 69 67 66 64 63 63 62 62 63 62 60 58 58 54 48 55 55 55 53 53 53 54
71 72 72 72 72 74 73 74 74 73 73 73 72 71 71 69 65 65 64 59 60 62 61 62 63 61 62 62 58 53 51 50 53 56 55 53 51 51
71 71 71 73 73 73 72 71 69 69 69 68 66 66 65 65 64 64 64 63 62 62 62 62 62 62 61 58 57 55 51 51 50 52 53 54 54 51
69 69 69 68 69 68 68 68 69 67 67 66 65 64 64 64 64 64 63 62 62 62 61 61 61 62 61 60 58 56 52 51 51 50 51 51 51 52

GFSNE_sfc_dewp_069.txt.gz
Dewpoint
70 69 69 69 67 66 65 61 58 57 57 60 62 64 66 65 66 65 65 67 68 67 66 66 66 67 67 68 68 68 69 69 69 69 69 70 70 70
71 70 69 69 68 67 69 65 63 60 58 60 61 63 66 67 67 67 68 69 68 67 66 66 66 67 67 67 67 67 67 68 68 68 68 68 68 69
69 69 69 69 69 68 69 69 67 64 62 64 63 67 66 66 68 69 70 69 69 68 68 67 66 66 66 66 66 66 66 66 66 67 67 67 68 68
70 69 69 70 70 69 69 68 68 68 66 65 65 67 67 69 70 70 70 70 70 70 67 66 65 65 65 64 64 64 63 62 63 63 64 65 66 67
71 70 69 70 70 70 69 69 70 70 68 67 68 68 69 69 70 70 70 70 70 69 67 67 67 66 66 64 63 60 59 59 59 60 60 61 62 63
70 71 71 70 70 70 70 70 70 70 69 68 68 68 68 70 70 69 70 69 69 70 70 69 68 69 68 65 62 61 59 58 57 57 57 57 58 59
71 71 71 71 70 69 70 70 70 69 69 69 68 68 68 69 69 69 68 69 69 70 70 71 72 73 72 67 64 62 60 58 57 57 55 55 54 55
71 71 71 71 70 68 67 67 70 70 69 69 69 69 69 69 68 68 67 66 67 70 71 71 73 72 73 63 62 61 59 58 58 57 56 55 54 54
70 70 70 71 70 71 68 66 66 66 68 71 70 70 70 70 68 67 67 67 67 70 71 71 71 70 72 62 61 59 58 57 57 56 55 54 53 53
70 70 70 70 71 71 71 71 71 70 69 68 70 71 71 71 69 69 69 69 70 71 73 71 70 72 68 62 60 59 57 57 56 55 54 53 52 51
70 71 71 71 68 64 71 70 70 71 68 64 64 64 63 62 64 69 68 68 68 69 70 70 71 71 69 66 62 59 56 55 54 54 54 53 51 52
70 70 65 68 64 62 69 70 70 70 70 70 69 66 64 66 62 67 69 69 68 67 70 71 71 70 67 67 61 59 58 55 54 53 53 52 51 55
69 69 70 62 60 59 60 70 69 69 68 69 69 69 70 70 70 69 69 70 68 68 71 74 72 69 68 66 62 59 56 55 54 53 52 51 51 52
69 69 69 60 57 57 59 61 61 61 69 69 68 70 70 70 71 71 71 70 71 71 73 73 72 69 66 60 60 60 56 55 53 53 54 53 52 53
70 67 62 58 56 57 57 59 59 65 68 66 68 67 67 69 70 70 70 71 74 73 74 74 72 67 64 60 59 57 55 55 53 52 53 54 54 54
66 69 66 64 61 63 62 61 63 65 66 66 66 67 68 68 68 69 70 71 73 70 64 62 67 64 61 59 58 55 54 54 53 55 52 54 53 54
67 70 71 69 70 68 67 67 66 65 65 66 67 67 66 67 68 70 71 72 72 66 64 59 57 58 59 58 56 55 54 53 52 52 50 53 53 54
66 70 70 70 70 70 70 69 68 65 65 65 66 66 66 67 68 70 71 72 71 68 63 61 58 58 58 57 57 55 54 53 52 52 52 52 52 53
71 70 70 70 70 70 70 70 69 69 69 68 68 68 69 69 69 70 71 69 67 65 64 62 59 60 58 57 56 54 55 54 52 54 54 53 52 52
71 71 71 71 71 71 71 71 71 71 70 70 70 70 70 70 70 71 70 67 64 63 62 61 62 62 60 59 58 55 49 54 53 54 53 53 53 53
67 71 71 72 72 71 70 71 71 71 70 71 71 71 70 69 70 70 69 60 61 62 62 61 62 60 60 58 57 54 53 48 52 53 53 53 52 52
68 68 70 71 71 71 70 69 68 67 64 62 62 63 63 63 62 64 67 65 63 62 62 62 61 60 59 59 57 55 53 51 51 52 53 53 52 51
67 68 69 68 66 66 66 64 64 63 64 64 64 64 64 63 63 63 62 64 64 62 62 61 61 61 59 59 57 56 53 51 51 51 52 53 53 53

GFSNE_sfc_dewp_072.txt.gz
Dewpoint
72 72 71 71 69 68 69 65 65 62 63 65 66 68 69 70 70 70 71 69 68 68 67 66 67 68 68 68 69 69 69 69 69 69 69 70 70 71
71 72 72 71 70 69 70 68 66 64 64 64 66 67 69 69 71 72 72 70 69 68 67 67 67 67 68 68 68 68 68 68 68 68 68 68 69 69
72 72 71 71 70 70 70 71 69 66 66 68 66 70 71 72 73 73 73 74 73 69 68 67 66 66 67 67 66 66 66 65 65 65 65 66 67 68
71 72 71 70 71 72 71 71 71 70 69 69 70 70 71 73 73 74 73 72 73 69 67 66 66 66 65 65 63 62 62 62 62 62 62 63 63 64
71 71 71 71 71 72 72 71 71 71 71 70 70 72 71 72 73 74 74 75 71 70 67 67 67 66 65 61 60 59 57 58 58 58 58 59 59 61
72 72 72 72 72 72 71 72 72 72 72 71 71 71 71 73 72 71 72 73 71 71 70 69 68 69 64 61 61 60 58 57 56 56 56 55 55 56
72 72 72 72 70 71 72 73 73 72 71 71 71 71 72 72 72 73 71 71 72 72 72 73 73 74 71 63 62 60 59 58 57 56 55 54 55 55
72 72 73 71 70 67 67 67 71 73 73 72 72 71 72 72 73 72 71 71 69 73 72 72 74 73 71 64 60 59 58 57 56 55 55 55 54 54
73 73 72 71 71 73 68 66 66 66 68 73 72 73 73 74 73 73 72 70 70 71 73 71 74 72 67 60 60 59 58 56 55 55 55 54 53 53
72 72 72 72 72 72 72 72 72 73 71 69 71 73 74 74 74 73 73 72 72 72 74 72 73 72 66 63 59 58 57 56 55 54 54 53 52 51
72 72 72 72 68 64 72 72 72 73 68 64 65 65 64 63 66 71 70 70 70 70 73 72 72 74 71 66 62 58 56 55 54 54 54 53 51 52
71 72 65 70 64 61 71 72 71 72 72 73 72 68 65 68 62 69 71 70 71 71 74 72 74 73 72 71 65 63 61 55 54 53 53 52 51 57
68 68 71 62 60 58 61 72 71 71 70 71 72 72 72 71 71 70 71 71 72 72 74 75 74 73 71 71 69 65 61 59 57 56 53 51 51 52
68 69 69 59 58 57 59 61 60 61 70 72 72 70 71 71 72 73 74 73 73 74 75 76 73 73 72 68 67 64 61 60 58 56 55 53 53 53
69 67 62 57 56 58 57 59 58 65 68 69 69 70 70 71 73 73 73 74 74 73 73 73 73 73 71 68 66 64 60 60 58 57 56 54 55 56
65 68 66 64 62 65 65 62 64 67 68 68 69 70 71 71 70 71 71 73 71 72 69 66 68 72 68 66 64 63 61 62 59 58 57 55 55 55
67 70 70 70 70 70 69 69 68 67 67 68 68 69 69 70 70 71 71 72 71 71 70 62 61 65 65 65 62 62 61 61 59 59 58 56 55 55
66 69 69 70 70 70 69 70 70 68 69 69 69 69 69 69 69 71 71 72 72 72 71 65 61 62 62 62 61 62 60 61 60 58 57 56 55 55
71 70 70 70 70 70 70 70 71 71 71 69 69 69 69 69 68 70 71 71 72 72 71 64 62 63 62 62 63 56 62 61 59 58 57 55 55 55
71 71 71 71 71 71 71 71 71 72 71 70 69 69 69 69 70 70 71 71 71 71 68 65 64 63 64 64 64 62 51 60 59 58 56 55 55 54
68 71 73 73 73 72 72 73 73 73 73 72 72 72 72 71 70 71 71 64 65 68 66 65 66 62 64 63 62 61 59 50 56 59 57 56 55 55
71 70 71 72 72 72 72 72 73 72 72 72 73 72 71 70 70 70 69 68 66 67 67 66 64 63 62 62 62 62 59 56 52 52 54 55 56 56
72 72 71 71 72 72 72 72 72 72 72 71 68 67 67 65 65 65 64 63 64 65 65 64 63 63 63 62 61 60 59 58 57 57 57 53 53 53

GFSNE_sfc_dewp_075.txt.gz
Dewpoint
73 73 72 71 71 70 70 69 66 60 60 64 64 69 69 70 72 73 73 71 69 68 68 67 68 68 69 69 69 69 69 69 69 69 69 69 70 71
71 74 74 70 71 70 69 69 69 67 62 67 66 70 72 71 71 73 73 72 71 69 68 67 67 68 68 69 68 68 68 67 67 67 67 67 68 68
74 74 74 75 70 69 69 69 69 69 65 64 69 71 74 75 74 75 72 72 70 69 68 67 66 66 67 67 65 65 65 64 64 63 64 64 64 65
73 74 73 71 74 74 71 73 71 72 69 70 71 70 73 75 75 76 72 69 73 68 67 66 66 66 65 63 62 61 61 61 60 59 59 60 60 61
72 73 73 73 74 71 73 72 71 72 72 71 70 70 71 72 73 73 74 75 70 69 67 67 67 66 62 61 60 58 57 57 57 57 57 57 58 59
74 73 73 73 74 74 73 74 73 73 72 71 69 69 70 72 72 69 68 69 71 70 70 69 69 66 63 61 60 59 57 57 56 55 55 56 57 57
74 74 73 72 70 71 71 73 74 72 70 69 69 68 68 67 69 69 68 69 71 72 71 68 69 73 69 63 62 60 58 57 56 55 55 55 55 55
73 74 74 71 71 68 67 68 71 74 73 69 67 67 72 71 69 69 69 69 67 69 72 69 70 72 74 71 60 59 57 56 56 55 55 54 55 54
74 74 72 70 72 73 68 66 66 66 68 74 73 72 73 73 74 74 73 71 70 69 72 69 70 71 75 62 59 59 57 56 55 55 55 54 53 53
73 74 74 74 73 73 73 73 73 73 73 71 72 73 74 75 75 75 75 75 73 71 74 70 69 71 75 70 59 59 57 56 55 54 54 53 52 51
74 74 74 74 69 65 73 72 73 73 67 65 66 65 65 64 68 72 70 69 66 66 69 70 70 72 74 73 66 58 57 55 55 54 54 53 51 52
72 74 66 71 65 62 72 72 72 72 71 70 71 70 66 70 62 72 71 69 67 66 69 70 68 71 70 74 72 66 63 55 54 54 53 52 51 58
68 67 68 62 61 58 62 73 72 71 69 71 70 68 70 72 72 72 73 71 68 67 68 73 70 71 73 73 72 70 67 65 62 60 53 51 51 53
69 68 69 59 58 57 59 63 61 63 70 68 67 67 67 68 69 71 75 75 73 74 74 76 71 71 72 72 71 69 66 65 63 61 59 55 53 53
69 67 62 56 56 59 58 59 59 69 69 68 68 68 68 68 73 73 75 76 76 76 74 76 74 74 74 74 72 69 65 65 64 62 61 58 57 57
64 68 66 64 63 65 66 63 68 69 69 69 69 69 69 69 70 71 70 70 70 71 75 76 76 75 73 73 72 69 67 64 63 63 62 60 59 57
67 69 69 69 70 70 70 70 71 70 69 70 70 70 69 69 70 71 71 70 70 69 69 71 72 73 74 73 69 68 66 64 63 63 62 60 60 57
66 69 69 70 70 70 70 70 71 69 71 70 70 70 69 69 69 70 71 71 70 69 69 70 69 68 67 67 66 67 66 64 64 62 61 60 59 58
69 70 70 69 70 70 71 71 70 71 73 71 70 70 70 69 69 70 70 71 70 70 70 71 70 69 68 67 68 56 65 64 63 61 60 59 59 59
70 70 71 71 71 71 71 71 71 71 71 71 71 70 70 70 70 70 70 71 70 70 70 72 70 68 70 69 67 66 52 66 63 62 60 58 57 53
68 70 71 71 72 72 73 73 73 72 71 72 72 71 71 71 71 71 72 64 67 73 71 71 71 65 72 67 64 63 61 52 58 63 62 58 57 58
71 71 73 73 74 74 74 74 74 74 73 72 72 72 72 72 73 73 73 72 71 71 71 72 71 69 69 66 65 67 63 59 54 53 54 57 58 56
73 73 73 73 74 74 75 74 73 73 73 73 73 73 73 73 73 73 71 70 70 69 69 69 67 67 66 66 65 68 63 61 59 58 59 54 54 54